User: anonymous   Login
Location: Hylvaty SDH
(49.9612°N, 16.4057°E)
Time: 08:40:14
(UTC+01:00)
Language:

SR - Orbit

View from above orbital plane
View from above orbital plane
View from above satellite
View from above satellite

Ground track
Ground track

The orbit data is extracted from the following two-line orbital elements,

1 00046U 60007B   21335.83889855  .00000114  00000-0  45850-4 0  9993
2 00046  66.6918  47.8191 0202419  94.4624 267.9638 14.49476695216268
Epoch (UTC): 01 December 2021 20:08:00
Eccentricity: 0.0202419
inclination: 66.6918°
perigee height: 583 km
apogee height: 871 km
right ascension of ascending node: 47.8191°
argument of perigee: 94.4624°
revolutions per day: 14.49476695
mean anomaly at epoch: 267.9638°
orbit number at epoch: 21626

The dashed part of the orbit path shows where the satellite is in the earth's shadow,  

DLR